Tracking 30923 objects as of 1-Jul-2025
HD Live streaming from Space Station
objects crossing your sky now

STARLINK-32807

Track STARLINK-32807 now!
10-day predictions
STARLINK-32807 is classified as:


NORAD ID: 62845
Int'l Code: 2025-019S
Perigee: 489.0 km
Apogee: 491.3 km
Inclination: 43.0 °
Period: 94.3 minutes
Semi major axis: 6861 km
RCS: Unknown
Launch date: January 27, 2025
Source: United States (US)
Launch site: AIR FORCE EASTERN TEST RANGE (AFETR)
Your satellite tracking list
HAMSAT (VO-52)
Track 1 satellite(s)




NASA's NSSDC Master Catalog

Two Line Element Set (TLE):
1 62845U 25019S   25181.02570581  .00011583  00000-0  42961-3 0  9990
2 62845  43.0020  68.5962 0001616 278.3089  81.7579 15.27592371 23692
Source of the keplerian elements: AFSPC